CAPE
0 0 0 0 0 0 0 0 0 0 0 0 0 0 0 0 0 0 0 0 0 0 0 0 0 7 0 0 0 478 88 100 47 78 211 196 69 80 96 282 385 426 308 167 596
0 0 0 0 0 0 0 0 0 0 0 0 0 0 0 2 0 0 0 0 0 0 0 0 7 17 4 0 0 167 0 42 236 100 277 354 269 349 159 333 567 474 313 633 768
0 0 0 0 0 0 0 0 0 0 0 0 0 0 0 0 0 0 0 0 136 2 0 0 5 28 17 1 99 94 12 108 105 131 351 360 401 238 209 1 587 445 320 601 647
0 0 0 0 0 0 0 0 0 0 0 0 0 0 1 0 0 0 3 234 37 0 0 0 3 6 9 13 6 94 107 28 162 143 100 323 533 254 397 248 716 474 212 422 453
0 0 0 0 0 0 0 0 0 0 0 0 0 0 0 0 0 0 0 325 0 0 0 2 0 0 2 1 26 78 79 92 6 0 19 495 487 599 582 284 673 741 322 219 398
0 0 0 0 0 0 0 0 0 0 0 0 0 0 0 0 0 0 0 0 0 0 0 0 0 0 0 0 0 22 19 0 0 11 131 606 792 770 712 389 764 676 566 442 316
0 0 0 0 0 0 0 0 0 0 0 0 0 0 0 0 0 0 0 0 0 0 0 5 0 0 0 0 0 1 11 0 0 9 316 644 701 601 591 532 604 969 810 643 467
0 0 0 0 0 0 0 0 0 0 0 0 0 0 0 0 0 0 0 0 0 0 0 0 0 0 0 0 0 0 7 0 0 0 125 77 62 191 941 1340 1415 946 670 669 515
0 0 0 0 0 0 0 0 0 0 0 0 0 0 0 0 0 0 0 0 0 0 0 0 0 0 0 0 0 10 19 2 0 24 164 122 160 147 990 882 487 682 585 581 500
0 0 0 0 0 0 0 0 0 0 0 0 0 0 0 0 0 0 0 0 0 0 0 0 0 0 0 0 0 0 2 4 14 46 119 115 255 299 1149 991 943 1127 850 691 461
0 0 0 0 0 0 0 0 0 0 0 0 0 0 0 0 0 0 0 0 0 0 0 0 0 0 0 0 0 0 2 25 61 48 121 231 420 546 736 1371 1319 1179 869 754 459
0 0 0 0 0 0 0 0 0 0 0 0 0 0 0 0 0 0 0 0 0 0 0 0 0 0 0 0 0 0 17 27 53 45 38 681 719 712 816 1227 1106 997 934 805 509
0 0 0 0 0 0 0 0 0 0 0 0 0 0 0 0 0 0 0 0 0 0 0 0 0 0 0 0 0 0 28 32 49 17 91 624 673 663 666 1143 1160 1026 1005 658 307
0 0 0 0 0 0 0 0 0 0 0 0 0 0 0 0 0 0 0 0 0 0 0 0 0 0 0 0 0 3 12 2 63 38 92 507 425 459 594 802 683 667 624 531 393
0 0 0 0 0 0 0 0 0 0 0 0 0 0 0 0 0 0 0 0 0 0 0 0 0 0 0 0 4 27 19 2 19 46 42 116 139 111 211 391 528 478 500 465 481
0 0 0 0 0 0 0 0 0 0 0 0 0 0 0 0 0 0 0 0 0 0 0 0 0 0 0 0 7 6 11 14 6 7 1 113 82 71 77 34 187 433 448 350 293
0 0 0 0 0 0 0 0 0 0 0 0 0 0 0 0 0 0 0 0 0 0 0 0 0 0 0 0 0 0 0 0 5 1 101 160 78 60 11 1 20 322 533 464 415
0 0 0 0 0 0 0 0 0 0 0 0 0 0 0 0 0 0 0 0 0 0 0 0 0 0 0 0 0 0 0 0 0 56 86 64 72 67 13 3 84 393 351 486 443
0 0 0 0 0 0 0 0 0 0 0 0 0 0 0 0 0 0 0 0 0 0 0 0 0 0 0 0 0 0 0 0 1 25 71 69 105 17 18 2 59 360 519 527 496
0 0 0 0 0 0 0 0 0 0 0 11 0 0 0 0 0 0 0 0 0 0 0 0 0 0 0 0 0 2 0 27 27 7 149 149 106 24 0 12 175 317 527 592 541
0 0 0 0 0 0 0 0 0 6 0 9 0 0 0 0 0 0 0 0 0 0 0 0 0 0 0 0 0 0 7 0 22 48 31 51 65 11 4 89 240 286 295 256 275
0 0 0 0 0 0 0 0 0 0 0 0 0 3 12 15 0 0 0 0 0 0 0 0 0 0 0 0 0 0 6 49 53 86 99 72 41 20 5 5 226 159 217 175 352
18 1 0 0 0 0 0 0 0 0 11 30 19 18 21 8 0 1 0 0 0 0 0 0 0 0 0 0 3 0 7 5 0 35 82 42 4 61 15 38 300 205 257 222 209
6 16 0 0 0 0 0 0 3 21 22 34 40 251 244 86 97 121 33 0 0 0 47 0 0 0 0 0 34 59 67 87 110 64 52 33 0 50 20 191 268 286 248 247 265
131 312 138 118 114 93 9 46 83 92 77 268 348 458 236 49 78 112 109 10 31 81 0 0 0 0 0 0 32 15 33 71 81 216 179 79 5 25 28 143 173 160 72 143 288
58 39 215 191 210 224 16 9 223 268 314 427 329 360 215 109 75 158 86 95 47 57 39 0 0 0 0 11 14 2 19 30 272 275 224 122 104 235 54 28 13 48 140 105 254
0 12 61 38 185 169 236 236 88 200 311 263 378 174 182 185 63 86 93 150 105 98 64 58 4 0 0 0 1 2 206 377 199 273 309 137 73 28 111 6 0 48 103 172 279
CIN
0 0 0 0 0 0 0 0 0 0 0 0 0 0 0 0 0 0 0 0 0 0 0 0 0 -10 0 0 0 -104 -77 -116 -45 -50 -63 -27 -77 -121 -82 -75 -63 -64 -40 -69 -70
0 0 0 0 0 0 0 0 0 0 0 0 0 0 0 0 0 0 0 0 0 0 0 0 -2 -6 -10 0 0 -94 -1 -52 -53 -152 -49 -51 -78 -78 -138 -60 -69 -62 -59 -89 -75
0 0 0 0 0 0 0 0 0 0 0 0 0 0 0 0 0 0 0 0 -540 -147 0 0 -4 -6 -19 -2 -76 -70 -17 -64 -55 -94 -92 -102 -91 -61 -27 -2 -96 -72 -127 -86 -60
0 0 0 0 0 0 0 0 0 0 0 0 0 0 0 0 0 0 -77 -499 -291 0 0 0 -4 -7 -7 -6 -11 -58 -54 -30 -26 -98 -114 -75 -84 -53 -15 -19 -71 -40 -62 -78 -74
0 0 0 0 0 0 0 0 0 0 0 0 0 0 0 0 0 0 0 -539 0 0 0 -27 0 0 -3 -1 -4 -10 -29 -45 -28 0 -24 -93 -88 -32 -28 -30 -61 -123 -74 -16 -23
0 0 0 0 0 0 0 0 0 0 0 0 0 0 0 0 0 0 0 0 0 0 0 0 0 0 0 0 0 -2 -26 0 0 -68 -33 -62 -83 -67 -31 -34 -56 -74 -122 -126 -53
0 0 0 0 0 0 0 0 0 0 0 0 0 0 0 0 0 0 0 0 0 0 0 -36 0 0 0 0 -1 -1 -9 0 0 -8 -24 -100 -37 -34 -42 -43 -71 -143 -190 -240 -248
0 0 0 0 0 0 0 0 0 0 0 0 0 0 0 0 0 0 0 0 0 0 0 0 0 0 0 0 0 0 -14 0 0 0 -30 -11 -13 -148 -153 -162 -154 -174 -19 -202 -119
0 0 0 0 0 0 0 0 0 0 0 0 0 0 0 0 0 0 0 0 0 0 0 0 0 0 0 0 0 -7 -13 -7 0 -64 -46 -29 -92 -8 -195 -168 -28 -259 -78 -174 -148
0 0 0 0 0 0 0 0 0 0 0 0 0 0 0 0 0 0 0 0 0 0 0 0 0 0 0 0 0 0 -4 -20 -5 -10 -38 -15 -46 -84 -183 -141 -76 -188 -145 -74 -81
0 0 0 0 0 0 0 0 0 0 0 0 0 0 0 0 0 0 0 0 0 0 0 0 0 0 0 0 0 0 -1 -1 -24 -1 -55 -77 -79 -92 -88 -130 -71 -77 -93 -118 -69
0 0 0 0 0 0 0 0 0 0 0 0 0 0 0 0 0 0 0 0 0 0 0 0 0 0 0 0 0 0 -14 -5 -18 -45 -10 -63 -68 -65 -113 -125 -163 -201 -175 -119 -91
0 0 0 0 0 0 0 0 0 0 0 0 0 0 0 0 0 0 0 0 0 0 0 0 0 0 0 0 0 0 -5 -3 -2 -5 -29 -29 -50 -44 -117 -113 -120 -149 -174 -180 -141
0 0 0 0 0 0 0 0 0 0 0 0 0 0 0 0 0 0 0 0 0 0 0 0 0 0 0 0 0 -15 -7 -8 -7 -5 -5 -29 -46 -42 -71 -69 -116 -164 -210 -228 -209
0 0 0 0 0 0 0 0 0 0 0 0 0 0 0 0 0 0 0 0 0 0 0 0 0 0 0 0 -61 -10 -6 -2 0 0 -2 -62 -55 -125 -35 -65 -111 -152 -174 -207 -174
0 0 0 0 0 0 0 0 0 0 0 0 0 0 0 0 0 0 0 0 0 0 0 0 0 0 0 0 -4 -5 -7 -2 -3 -5 -10 -52 -34 -30 -136 -257 -117 -82 -112 -183 -203
0 0 0 0 0 0 0 0 0 0 0 0 0 0 0 0 0 0 0 0 0 0 0 0 0 0 0 0 0 -7 0 0 -7 -2 -27 -94 -86 -21 -196 -144 -151 -54 -32 -97 -149
0 0 0 0 0 0 0 0 0 0 0 0 0 0 0 0 0 0 0 0 0 0 0 0 0 0 0 0 0 0 0 0 0 -28 -17 -47 -123 -139 -64 -71 -77 -40 -46 -37 -93
0 0 0 0 0 0 0 0 0 0 0 0 0 0 0 0 0 0 0 0 0 0 0 0 0 0 0 0 0 0 0 0 -1 -26 -86 -147 -210 -184 -388 -240 -393 -35 -77 -49 -76
0 0 0 0 0 0 0 0 0 0 0 -5 0 0 0 0 0 0 0 0 0 0 0 0 0 0 0 0 0 -6 0 -8 -19 -12 -53 -156 -318 -45 -26 -141 -182 -60 -72 -45 -77
0 0 0 0 0 0 0 0 0 -15 0 -3 0 0 0 0 0 0 0 0 0 0 0 0 0 0 0 0 0 0 -21 0 -36 -17 -17 -117 -111 -76 -251 -75 -47 -44 -67 -40 -80
0 0 0 0 0 0 0 0 0 0 -1 0 0 -16 -9 -7 0 0 0 0 0 0 0 0 0 0 0 0 0 0 -20 -43 -24 -52 -207 -64 -68 -333 -376 -279 -62 -49 -34 -49 -22
-98 -13 0 0 0 0 0 0 0 0 -16 -11 -23 -27 -12 -12 -7 -4 0 0 0 0 0 0 0 0 0 0 -11 0 -25 -7 0 -179 -96 -77 -65 -199 -443 -530 -440 -114 -96 -90 -46
-12 -78 0 0 0 0 0 0 -48 -67 -45 -55 -46 -64 -86 -108 -49 -28 -20 0 0 0 -131 0 0 0 0 0 -90 -56 -17 -5 -9 -11 -28 -65 -9 -266 -556 -69 -119 -150 -284 -145 -178
-60 -4 -18 -30 -12 -37 -12 -40 -26 -38 -143 -88 -174 -98 -53 -52 -136 -15 -137 -174 -188 -281 0 0 0 0 0 0 -160 -64 -49 -9 0 -61 -15 -9 -33 -281 -82 -63 -115 -109 -121 -98 -339
-71 -48 -13 -7 -15 -40 -92 -29 -98 -91 -160 -71 -135 -107 -80 -505 -314 -78 -101 -81 -187 -94 -175 -2 0 0 -10 -137 -88 -57 -28 -29 -132 -108 -44 -19 -231 -286 -553 -456 -348 -280 -60 -428 -188
0 -57 -35 -35 -37 -27 -77 -65 -80 -44 -201 -174 -111 -77 -90 -345 -457 -168 -70 -77 -73 -349 -69 -143 -14 0 0 -26 -28 -42 -217 -102 -118 -74 -41 -5 -42 -79 -297 -258 0 -281 -95 -52 -106
Wind_Speed
nan nan nan nan nan nan nan nan nan nan nan nan nan nan nan nan nan nan nan nan nan nan nan nan nan nan nan nan nan 9 nan 11 nan nan 6 14 nan nan nan 12 12 14 16 21 31
nan nan nan nan nan nan nan nan nan nan nan nan nan nan nan nan nan nan nan nan nan nan nan nan nan nan nan nan nan 9 nan nan 4 6 10 7 14 17 15 9 9 27 29 36 33
nan nan nan nan nan nan nan nan nan nan nan nan nan nan nan nan nan nan nan nan 3 nan nan nan nan nan nan nan nan nan nan 3 3 10 14 15 6 9 12 nan 11 30 33 33 32
nan nan nan nan nan nan nan nan nan nan nan nan nan nan nan nan nan nan nan 8 nan nan nan nan nan nan nan nan nan nan 9 nan 3 8 16 11 13 9 9 7 20 22 32 28 32
nan nan nan nan nan nan nan nan nan nan nan nan nan nan nan nan nan nan nan 14 nan nan nan nan nan nan nan nan nan nan nan nan nan nan nan 15 9 10 7 18 18 19 19 18 22
nan nan nan nan nan nan nan nan nan nan nan nan nan nan nan nan nan nan nan nan nan nan nan nan nan nan nan nan nan nan nan nan nan nan 19 16 15 11 14 23 24 23 24 22 20
nan nan nan nan nan nan nan nan nan nan nan nan nan nan nan nan nan nan nan nan nan nan nan nan nan nan nan nan nan nan nan nan nan nan 5 22 10 22 10 25 25 23 20 28 29
nan nan nan nan nan nan nan nan nan nan nan nan nan nan nan nan nan nan nan nan nan nan nan nan nan nan nan nan nan nan nan nan nan nan 16 nan nan 20 23 31 29 23 20 20 19
nan nan nan nan nan nan nan nan nan nan nan nan nan nan nan nan nan nan nan nan nan nan nan nan nan nan nan nan nan nan nan nan nan nan 11 10 8 23 28 32 27 19 17 14 13
nan nan nan nan nan nan nan nan nan nan nan nan nan nan nan nan nan nan nan nan nan nan nan nan nan nan nan nan nan nan nan nan nan nan 6 11 18 16 27 26 26 23 22 18 17
nan nan nan nan nan nan nan nan nan nan nan nan nan nan nan nan nan nan nan nan nan nan nan nan nan nan nan nan nan nan nan nan nan nan 12 20 20 18 19 26 30 23 22 23 23
nan nan nan nan nan nan nan nan nan nan nan nan nan nan nan nan nan nan nan nan nan nan nan nan nan nan nan nan nan nan nan nan nan nan nan 17 20 14 25 28 32 33 23 18 14
nan nan nan nan nan nan nan nan nan nan nan nan nan nan nan nan nan nan nan nan nan nan nan nan nan nan nan nan nan nan nan nan nan nan nan 22 18 16 13 27 28 25 25 20 22
nan nan nan nan nan nan nan nan nan nan nan nan nan nan nan nan nan nan nan nan nan nan nan nan nan nan nan nan nan nan nan nan nan nan nan 18 20 23 17 16 16 20 22 19 16
nan nan nan nan nan nan nan nan nan nan nan nan nan nan nan nan nan nan nan nan nan nan nan nan nan nan nan nan nan nan nan nan nan nan nan 17 25 21 27 25 18 10 15 20 15
nan nan nan nan nan nan nan nan nan nan nan nan nan nan nan nan nan nan nan nan nan nan nan nan nan nan nan nan nan nan nan nan nan nan nan 21 nan nan nan nan 14 5 6 12 12
nan nan nan nan nan nan nan nan nan nan nan nan nan nan nan nan nan nan nan nan nan nan nan nan nan nan nan nan nan nan nan nan nan nan 15 15 nan nan nan nan nan 1 3 5 7
nan nan nan nan nan nan nan nan nan nan nan nan nan nan nan nan nan nan nan nan nan nan nan nan nan nan nan nan nan nan nan nan nan nan nan nan nan nan nan nan nan 1 4 7 6
nan nan nan nan nan nan nan nan nan nan nan nan nan nan nan nan nan nan nan nan nan nan nan nan nan nan nan nan nan nan nan nan nan nan nan nan 11 nan nan nan nan 9 17 8 5
nan nan nan nan nan nan nan nan nan nan nan nan nan nan nan nan nan nan nan nan nan nan nan nan nan nan nan nan nan nan nan nan nan nan 22 17 6 nan nan nan 20 23 16 6 4
nan nan nan nan nan nan nan nan nan nan nan nan nan nan nan nan nan nan nan nan nan nan nan nan nan nan nan nan nan nan nan nan nan nan nan nan nan nan nan nan 22 29 23 18 6
nan nan nan nan nan nan nan nan nan nan nan nan nan nan nan nan nan nan nan nan nan nan nan nan nan nan nan nan nan nan nan nan nan nan nan nan nan nan nan nan 18 5 18 21 21
nan nan nan nan nan nan nan nan nan nan nan nan nan nan nan nan nan nan nan nan nan nan nan nan nan nan nan nan nan nan nan nan nan nan nan nan nan nan nan nan 13 18 13 16 15
nan nan nan nan nan nan nan nan nan nan nan nan nan 40 38 nan nan 22 nan nan nan nan nan nan nan nan nan nan nan nan nan nan 22 nan nan nan nan nan nan 20 16 10 12 11 24
7 4 5 10 18 nan nan nan nan nan nan 35 43 36 27 nan nan 34 25 nan nan nan nan nan nan nan nan nan nan nan nan nan nan 19 29 nan nan nan nan 19 16 16 nan 11 18
nan nan 15 10 18 33 nan nan 41 51 44 42 43 36 41 33 nan 31 nan nan nan nan nan nan nan nan nan nan nan nan nan nan 26 33 32 24 20 25 nan nan nan nan 22 19 17
nan nan nan nan 16 28 33 40 nan 49 39 40 38 40 35 36 nan nan nan 29 34 nan nan nan nan nan nan nan nan nan 22 14 31 42 32 25 nan nan 18 nan nan nan 28 28 29
Wind_Direction
nan nan nan nan nan nan nan nan nan nan nan nan nan nan nan nan nan nan nan nan nan nan nan nan nan nan nan nan nan 214 nan 75 nan nan 317 317 nan nan nan 339 351 345 332 314 314
nan nan nan nan nan nan nan nan nan nan nan nan nan nan nan nan nan nan nan nan nan nan nan nan nan nan nan nan nan 184 nan nan 324 289 310 322 302 350 346 14 15 325 316 321 325
nan nan nan nan nan nan nan nan nan nan nan nan nan nan nan nan nan nan nan nan 355 nan nan nan nan nan nan nan nan nan nan 265 18 305 319 332 15 343 305 nan 341 321 318 326 331
nan nan nan nan nan nan nan nan nan nan nan nan nan nan nan nan nan nan nan 2 nan nan nan nan nan nan nan nan nan nan 236 nan 105 350 319 320 305 337 311 348 318 326 320 340 343
nan nan nan nan nan nan nan nan nan nan nan nan nan nan nan nan nan nan nan 265 nan nan nan nan nan nan nan nan nan nan nan nan nan nan nan 314 345 352 360 299 313 307 307 319 334
nan nan nan nan nan nan nan nan nan nan nan nan nan nan nan nan nan nan nan nan nan nan nan nan nan nan nan nan nan nan nan nan nan nan 314 342 359 310 277 310 326 310 313 304 313
nan nan nan nan nan nan nan nan nan nan nan nan nan nan nan nan nan nan nan nan nan nan nan nan nan nan nan nan nan nan nan nan nan nan 352 317 331 288 326 316 324 317 317 329 337
nan nan nan nan nan nan nan nan nan nan nan nan nan nan nan nan nan nan nan nan nan nan nan nan nan nan nan nan nan nan nan nan nan nan 0 nan nan 309 327 323 338 328 309 336 338
nan nan nan nan nan nan nan nan nan nan nan nan nan nan nan nan nan nan nan nan nan nan nan nan nan nan nan nan nan nan nan nan nan nan 329 347 339 341 338 336 342 323 325 347 333
nan nan nan nan nan nan nan nan nan nan nan nan nan nan nan nan nan nan nan nan nan nan nan nan nan nan nan nan nan nan nan nan nan nan 302 332 346 330 346 344 343 338 346 359 356
nan nan nan nan nan nan nan nan nan nan nan nan nan nan nan nan nan nan nan nan nan nan nan nan nan nan nan nan nan nan nan nan nan nan 335 7 345 3 336 339 333 348 357 1 3
nan nan nan nan nan nan nan nan nan nan nan nan nan nan nan nan nan nan nan nan nan nan nan nan nan nan nan nan nan nan nan nan nan nan nan 350 345 341 343 343 347 346 356 344 349
nan nan nan nan nan nan nan nan nan nan nan nan nan nan nan nan nan nan nan nan nan nan nan nan nan nan nan nan nan nan nan nan nan nan nan 322 307 301 325 324 339 338 337 332 335
nan nan nan nan nan nan nan nan nan nan nan nan nan nan nan nan nan nan nan nan nan nan nan nan nan nan nan nan nan nan nan nan nan nan nan 299 312 284 276 301 324 330 332 332 327
nan nan nan nan nan nan nan nan nan nan nan nan nan nan nan nan nan nan nan nan nan nan nan nan nan nan nan nan nan nan nan nan nan nan nan 229 267 278 290 298 332 352 349 333 336
nan nan nan nan nan nan nan nan nan nan nan nan nan nan nan nan nan nan nan nan nan nan nan nan nan nan nan nan nan nan nan nan nan nan nan 262 nan nan nan nan 287 302 42 337 339
nan nan nan nan nan nan nan nan nan nan nan nan nan nan nan nan nan nan nan nan nan nan nan nan nan nan nan nan nan nan nan nan nan nan 261 272 nan nan nan nan nan 35 49 52 347
nan nan nan nan nan nan nan nan nan nan nan nan nan nan nan nan nan nan nan nan nan nan nan nan nan nan nan nan nan nan nan nan nan nan nan nan nan nan nan nan nan 285 21 6 30
nan nan nan nan nan nan nan nan nan nan nan nan nan nan nan nan nan nan nan nan nan nan nan nan nan nan nan nan nan nan nan nan nan nan nan nan 306 nan nan nan nan 237 290 338 14
nan nan nan nan nan nan nan nan nan nan nan nan nan nan nan nan nan nan nan nan nan nan nan nan nan nan nan nan nan nan nan nan nan nan 251 260 338 nan nan nan 278 224 232 277 349
nan nan nan nan nan nan nan nan nan nan nan nan nan nan nan nan nan nan nan nan nan nan nan nan nan nan nan nan nan nan nan nan nan nan nan nan nan nan nan nan 286 211 193 209 76
nan nan nan nan nan nan nan nan nan nan nan nan nan nan nan nan nan nan nan nan nan nan nan nan nan nan nan nan nan nan nan nan nan nan nan nan nan nan nan nan 309 259 221 207 193
nan nan nan nan nan nan nan nan nan nan nan nan nan nan nan nan nan nan nan nan nan nan nan nan nan nan nan nan nan nan nan nan nan nan nan nan nan nan nan nan 326 251 270 261 224
nan nan nan nan nan nan nan nan nan nan nan nan nan 212 195 nan nan 192 nan nan nan nan nan nan nan nan nan nan nan nan nan nan 255 nan nan nan nan nan nan 327 358 18 353 292 287
246 214 205 220 183 nan nan nan nan nan nan 205 222 224 208 nan nan 208 185 nan nan nan nan nan nan nan nan nan nan nan nan nan nan 265 271 nan nan nan nan 331 8 43 nan 294 276
nan nan 196 192 191 190 nan nan 195 202 211 216 238 225 219 211 nan 202 nan nan nan nan nan nan nan nan nan nan nan nan nan nan 249 247 245 280 282 299 nan nan nan nan 3 330 253
nan nan nan nan 200 212 206 205 nan 203 212 219 229 228 228 220 nan nan nan 201 212 nan nan nan nan nan nan nan nan nan 213 217 246 250 250 238 nan nan 315 nan nan nan 347 309 269